User: anonymous   Login
Location: Unspecified
(0.0000°N, 0.0000°E)
Time: 21:48:55
(UTC+01:00)
Language:

GPS 2-12 Rocket1 - Orbit

View from above orbital plane
View from above orbital plane
View from above satellite
View from above satellite

Ground track
Ground track

The orbit data is extracted from the following two-line orbital elements,

1 21891U 92009B   14354.20657301  .00002643  00000-0  27411-3 0  3685
2 21891 019.9981 302.1604 0048600 016.7877 343.4141 14.81484546231056
Epoch (UTC): 20 December 2014 04:57:27
Eccentricity: 0.0048600
inclination: 19.9981°
perigee height: 590 km
apogee height: 658 km
right ascension of ascending node: 302.1604°
argument of perigee: 16.7877°
revolutions per day: 14.81484546
mean anomaly at epoch: 343.4141°
orbit number at epoch: 23105

The dashed part of the orbit path shows where the satellite is in the earth's shadow,  

DLR